User: anonymous   Login
Location: Unspecified
(0.0000°N, 0.0000°E)
Time: 23:50:33
(UTC+00:00)
Language:

TBA - TO BE ASSIGNED - Orbit

View from above orbital plane
View from above orbital plane
View from above satellite
View from above satellite

Ground track
Ground track

The orbit is defined by the following mean orbital elements,

1 67571U          26145.63027778 +.00000000 +00000-0 +65336-3 0 00003
2 67571  97.2850 205.9246 0000942 259.0829 101.0308 15.33463251    03
Epoch (UTC): 25 May 2026 15:07:36
Eccentricity: 0.0000942
inclination: 97.2850°
perigee height: 465 km
apogee height: 466 km
right ascension of ascending node: 205.9246°
argument of perigee: 259.0829°
revolutions per day: 15.33463251
mean anomaly at epoch: 101.0308°

The dashed part of the orbit path shows where the satellite is in the earth's shadow,  

DLR